Everett, WA

11:02 PM PST on November 16, 2019 (GMT -0800)
Snohomish County

Weather History for KPAE - August, 2019

Change the Weather History Date:

Monday, August 5, 2019

  Actual Average Record
Temperature  
Mean Temperature 70 °F -  
Max Temperature 80 °F 74 °F 92 °F (1952)
Min Temperature 59 °F 55 °F 43 °F (1950)
Cooling Degree Days 4    
Growing Degree Days 20 (Base 50)    
Moisture  
Dew Point 54 °F    
Average Humidity 59    
Maximum Humidity 87    
Minimum Humidity 42    
Precipitation  
Precipitation 0.00 in - - ()
Sea Level Pressure  
Sea Level Pressure 30.02 in    
Wind  
Wind Speed 3 mph (NNW)    
Max Wind Speed 8 mph    
Max Gust Speed -    
Visibility 10 miles    
Events      
Averages and records for this station are not official NWS values.
T = Trace of Precipitation, MM = Missing Value Source: NWS Daily Summary

Daily Weather History Graph

Daily Weather History Graph

Search for Another Location

Airport or City:

Astronomy

Aug. 05, 2019 Rise Set
Actual Time 5:50 AM PDT 8:38 PM PDT
Civil Twilight 5:14 AM PDT 9:14 PM PDT
Nautical Twilight 4:29 AM PDT 9:59 PM PDT
Astronomical Twilight 3:34 AM PDT 10:53 PM PDT
Moon 11:36 AM PDT (8/5) 11:28 PM PDT (8/5)
Length of Visible Light 15h 59m
Length of Day
14h 48m
Waxing Crescent, 29% of the Moon is Illuminated
Aug 5
Waxing Crescent
Aug 7
First Quarter
Aug 15
Full
Aug 23
Last Quarter
Aug 30
New

Hourly Weather History & Observations

Time (PDT) Temp. Dew Point Humidity Pressure Visibility Wind Dir Wind Speed Gust Speed Precip Events Conditions
12:53 AM 64.9 °F 52.0 °F 63% 30.01 in 10.0 mi Calm Calm - N/A   Clear
1:53 AM 66.9 °F 50.0 °F 54% 30.01 in 10.0 mi Calm Calm - N/A   Clear
2:53 AM 66.9 °F 51.1 °F 57% 30.01 in 10.0 mi Calm Calm - N/A   Clear
3:53 AM 66.0 °F 51.1 °F 59% 30.02 in 10.0 mi Calm Calm - N/A   Clear
4:53 AM 66.0 °F 50.0 °F 56% 30.03 in 10.0 mi Calm Calm - N/A   Clear
5:53 AM 63.0 °F 51.1 °F 65% 30.04 in 10.0 mi Calm Calm - N/A   Clear
6:53 AM 64.9 °F 54.0 °F 68% 30.05 in 10.0 mi Calm Calm - N/A   Clear
7:53 AM 69.1 °F 55.0 °F 61% 30.06 in 10.0 mi Calm Calm - N/A   Clear
8:53 AM 70.0 °F 57.0 °F 63% 30.06 in 10.0 mi Variable 3.5 mph - N/A   Clear
9:53 AM 71.1 °F 55.9 °F 59% 30.06 in 10.0 mi WNW 3.5 mph - N/A   Clear
10:53 AM 73.9 °F 55.0 °F 52% 30.06 in 10.0 mi Variable 4.6 mph - N/A   Clear
11:53 AM 75.9 °F 54.0 °F 46% 30.06 in 10.0 mi West 6.9 mph - N/A   Clear
12:53 PM 77.0 °F 53.1 °F 43% 30.05 in 10.0 mi Variable 4.6 mph - N/A   Clear
1:53 PM 79.0 °F 54.0 °F 42% 30.04 in 10.0 mi Variable 4.6 mph - N/A   Clear
2:53 PM 79.0 °F 54.0 °F 42% 30.03 in 10.0 mi North 6.9 mph - N/A   Clear
3:53 PM 77.0 °F 54.0 °F 45% 30.01 in 10.0 mi Variable 4.6 mph - N/A   Clear
4:53 PM 77.0 °F 54.0 °F 45% 29.99 in 10.0 mi North 5.8 mph - N/A   Clear
5:53 PM 75.0 °F 54.0 °F 48% 29.99 in 10.0 mi North 8.1 mph - N/A   Clear
6:53 PM 72.0 °F 53.1 °F 51% 29.98 in 10.0 mi North 8.1 mph - N/A   Clear
7:53 PM 66.0 °F 55.0 °F 68% 29.98 in 10.0 mi North 8.1 mph - N/A   Clear
8:53 PM 62.1 °F 55.0 °F 78% 29.99 in 10.0 mi North 8.1 mph - N/A   Clear
9:53 PM 60.1 °F 55.0 °F 83% 29.99 in 10.0 mi North 6.9 mph - N/A   Clear
10:53 PM 60.1 °F 55.0 °F 83% 29.99 in 10.0 mi North 6.9 mph - N/A   Clear
11:53 PM 59.0 °F 55.0 °F 87% 29.99 in 10.0 mi NNE 6.9 mph - N/A   Clear